SCP
0 0 0 0 0 -0 -0 -0 -0 -0 -0 0 -0 -0 -0 -0 -0 -0 -0 0 -0 -0 0 0 0 0 0
0 0 0 0 0 0 0 0 0 -0 -0 -0 -0 -0 -0 -0 -0 -0 -0 -0 -0 -0 0 0 0 0 0
0 0 0 0 0 0 0 0 0 -0 -0 -0 -0 -0 -0 -0 -0 0 0 0 0 0 0 0 0 0 0
0 0 0 0 0 -0 0 -0 -0 -0 -0 -0 -0 -0 -0 0 0 0 0 0 0 0 0 0 0 0 0
0 0 0 0 0 -0 -0 -0 0 0 -0 0 0 0 0 0 0 0 0 0 0 0 0 0 0 0 0
0 0 0 0 -0 -0 -0 0 0 0 0 0 0 0 0 0 0 0 0 0 0 0 0 0 0 0 0
0 0 0 0 0 0 0 -0 -0 -0 -0 0 0 0 0 0 0 0 0 0 0 0 0 0 0 0 0
0 0 0 0 0 0 -0 -0 -0 0 0 0 0 0 0 0 0 0 0 0 0 0 0 0 0 0 0
0 0 -0 -0 0 -0 -0 -0 0 0 0 0 0 0 0 0 0 0 0 0 0 0 0 0 0 0 0
0 0 -0 0 0 0 0 0 0 0 0 0 0 0 0 0 0 0 0 0 0 0 0 0 0 0 0
0 0 0 0 0 0 0 0 0 0 0 0 0 0 0 0 0 0 0 0 0 0 0 0 0 0 0
0 0 0 0 0 0 0 0 0 0 0 0 0 0 0 0 0 0 0 0 0 0 0 0 0 0 0
0 0 0 0 0 0 0 0 0 0 0 0 0 0 0 0 0 0 0 0 0 0 0 0 0 0 0
0 0 0 0 0 0 0 0 0 0 0 0 0 0 0 0 0 0 0 0 0 0 0 0 0 0 0
0 0 0 0 0 0 0 0 0 0 0 0 0 0 0 0 0 0 0 0 0 0 0 0 0 0 0
0 0 0 0 0 0 0 0 0 0 0 0 0 0 0 0 0 0 0 0 0 0 0 0 0 0 0
Wind_Speed_500mb
22 19 20 21 21 20 21 22 21 23 25 24 24 20 21 21 21 17 16 13 10 9 13 17 20 21 23
25 23 22 21 20 20 20 20 20 21 21 20 19 18 17 16 15 15 14 11 10 11 12 17 19 19 21
25 25 22 20 19 18 18 19 19 18 17 17 16 15 14 13 15 14 13 12 11 14 13 17 20 19 21
26 24 22 19 17 17 16 17 17 16 16 15 14 14 13 13 12 12 12 12 13 14 16 17 20 21 23
30 26 23 20 17 16 15 14 13 13 14 13 12 11 11 11 11 11 11 11 11 10 12 15 18 21 23
30 27 24 21 18 16 13 12 9 9 9 9 8 8 7 8 9 10 10 10 10 9 12 16 19 22 25
33 30 27 23 20 17 15 12 9 7 5 3 3 4 4 6 7 8 9 10 13 15 17 18 20 23 28
34 32 27 26 23 20 16 13 11 9 5 3 3 4 6 7 8 10 10 12 14 15 15 18 23 29 33
37 33 32 26 25 23 19 17 15 13 11 10 9 8 9 9 10 11 13 16 15 17 19 27 31 35 38
41 38 35 31 29 23 20 20 19 18 17 17 14 13 14 13 13 14 17 17 19 24 30 35 37 42 49
36 34 36 33 33 26 25 21 20 21 23 20 18 18 17 14 14 18 18 26 28 33 38 43 45 48 50
37 37 40 41 36 35 35 30 27 25 21 19 18 15 14 13 19 22 28 29 35 42 46 49 49 47 46
47 48 47 50 48 46 41 38 36 32 26 22 21 20 19 20 25 26 31 35 39 40 51 55 51 36 43
51 47 47 41 49 49 47 47 47 38 33 31 26 26 27 29 29 30 32 36 40 37 40 45 42 58 29
51 48 50 43 45 48 48 45 40 33 30 32 31 32 32 33 33 31 30 31 34 34 33 33 21 18 69
52 52 54 54 46 45 40 36 33 34 35 35 33 30 28 30 28 25 26 28 30 35 34 33 28 39 36
Wind_Direction_500mb
148 135 124 123 120 115 109 104 103 99 101 98 94 94 81 77 76 85 92 92 73 27 30 29 27 29 33
153 141 129 127 126 120 112 109 104 98 94 94 90 84 79 77 74 72 71 66 52 34 24 24 24 30 30
153 145 141 138 127 120 115 108 102 97 96 90 88 83 78 72 63 61 60 52 41 36 29 23 23 29 30
160 156 153 144 136 126 119 114 111 109 103 96 89 80 70 66 59 56 49 39 36 31 33 24 26 28 27
171 166 164 161 156 146 137 128 121 111 102 97 91 84 75 64 52 42 37 30 27 25 27 26 15 10 7
180 177 176 174 171 164 157 148 130 114 101 94 89 76 55 41 30 19 12 11 7 6 7 3 358 355 351
189 189 187 186 183 183 180 171 163 155 138 101 62 35 22 7 354 348 341 340 342 340 340 344 345 345 338
196 199 198 197 196 197 199 199 200 202 205 233 272 302 316 322 328 325 318 322 327 332 337 336 335 333 329
205 206 207 204 207 210 213 217 222 227 234 247 257 271 283 298 314 329 327 329 336 332 329 328 326 324 316
217 210 211 216 221 214 223 230 235 238 242 250 259 268 277 290 303 313 325 333 331 322 320 315 312 309 310
223 227 217 219 225 228 233 236 236 241 238 243 250 259 271 290 307 307 321 318 318 312 310 309 310 309 313
226 231 224 223 225 229 235 242 237 243 248 251 250 263 285 301 297 297 298 308 310 310 308 311 306 311 316
221 222 222 229 228 231 233 235 242 247 251 262 274 278 281 279 285 294 301 305 301 312 311 312 318 320 325
228 232 239 239 233 236 240 242 247 252 254 261 268 272 276 280 284 289 296 297 309 315 320 318 326 330 320
234 233 235 236 233 231 233 237 242 246 252 262 266 267 271 275 279 285 292 298 302 309 314 328 327 310 314
233 233 236 240 244 231 234 240 240 246 250 256 260 264 263 266 273 279 287 289 297 301 302 306 301 305 316
Wind_Speed_850mb
22 19 20 21 21 20 21 22 21 23 25 24 24 20 21 21 21 17 16 13 10 9 13 17 20 21 23
25 23 22 21 20 20 20 20 20 21 21 20 19 18 17 16 15 15 14 11 10 11 12 17 19 19 21
25 25 22 20 19 18 18 19 19 18 17 17 16 15 14 13 15 14 13 12 11 14 13 17 20 19 21
26 24 22 19 17 17 16 17 17 16 16 15 14 14 13 13 12 12 12 12 13 14 16 17 20 21 23
30 26 23 20 17 16 15 14 13 13 14 13 12 11 11 11 11 11 11 11 11 10 12 15 18 21 23
30 27 24 21 18 16 13 12 9 9 9 9 8 8 7 8 9 10 10 10 10 9 12 16 19 22 25
33 30 27 23 20 17 15 12 9 7 5 3 3 4 4 6 7 8 9 10 13 15 17 18 20 23 28
34 32 27 26 23 20 16 13 11 9 5 3 3 4 6 7 8 10 10 12 14 15 15 18 23 29 33
37 33 32 26 25 23 19 17 15 13 11 10 9 8 9 9 10 11 13 16 15 17 19 27 31 35 38
41 38 35 31 29 23 20 20 19 18 17 17 14 13 14 13 13 14 17 17 19 24 30 35 37 42 49
36 34 36 33 33 26 25 21 20 21 23 20 18 18 17 14 14 18 18 26 28 33 38 43 45 48 50
37 37 40 41 36 35 35 30 27 25 21 19 18 15 14 13 19 22 28 29 35 42 46 49 49 47 46
47 48 47 50 48 46 41 38 36 32 26 22 21 20 19 20 25 26 31 35 39 40 51 55 51 36 43
51 47 47 41 49 49 47 47 47 38 33 31 26 26 27 29 29 30 32 36 40 37 40 45 42 58 29
51 48 50 43 45 48 48 45 40 33 30 32 31 32 32 33 33 31 30 31 34 34 33 33 21 18 69
52 52 54 54 46 45 40 36 33 34 35 35 33 30 28 30 28 25 26 28 30 35 34 33 28 39 36
Wind_Direction_850mb
148 135 124 123 120 115 109 104 103 99 101 98 94 94 81 77 76 85 92 92 73 27 30 29 27 29 33
153 141 129 127 126 120 112 109 104 98 94 94 90 84 79 77 74 72 71 66 52 34 24 24 24 30 30
153 145 141 138 127 120 115 108 102 97 96 90 88 83 78 72 63 61 60 52 41 36 29 23 23 29 30
160 156 153 144 136 126 119 114 111 109 103 96 89 80 70 66 59 56 49 39 36 31 33 24 26 28 27
171 166 164 161 156 146 137 128 121 111 102 97 91 84 75 64 52 42 37 30 27 25 27 26 15 10 7
180 177 176 174 171 164 157 148 130 114 101 94 89 76 55 41 30 19 12 11 7 6 7 3 358 355 351
189 189 187 186 183 183 180 171 163 155 138 101 62 35 22 7 354 348 341 340 342 340 340 344 345 345 338
196 199 198 197 196 197 199 199 200 202 205 233 272 302 316 322 328 325 318 322 327 332 337 336 335 333 329
205 206 207 204 207 210 213 217 222 227 234 247 257 271 283 298 314 329 327 329 336 332 329 328 326 324 316
217 210 211 216 221 214 223 230 235 238 242 250 259 268 277 290 303 313 325 333 331 322 320 315 312 309 310
223 227 217 219 225 228 233 236 236 241 238 243 250 259 271 290 307 307 321 318 318 312 310 309 310 309 313
226 231 224 223 225 229 235 242 237 243 248 251 250 263 285 301 297 297 298 308 310 310 308 311 306 311 316
221 222 222 229 228 231 233 235 242 247 251 262 274 278 281 279 285 294 301 305 301 312 311 312 318 320 325
228 232 239 239 233 236 240 242 247 252 254 261 268 272 276 280 284 289 296 297 309 315 320 318 326 330 320
234 233 235 236 233 231 233 237 242 246 252 262 266 267 271 275 279 285 292 298 302 309 314 328 327 310 314
233 233 236 240 244 231 234 240 240 246 250 256 260 264 263 266 273 279 287 289 297 301 302 306 301 305 316